Inquirer Daily News

Weather

Get conditions and forecasts for any City, State, ZIP code or Country:  
Trenton, NJ
on Thursday, February 14, 2013

Thursday
Previous Day Next Day
Daily Summary
 ActualAverageRecord
Temperature
Mean Temperature °F 34°F  
Max Temperature 46°F 42°F 66°F (1946)
Min Temperature 29°F 26°F 0°F (1916)
Degree Days
Heating Degree Days 27 31  
Month to date heating degree days 480 452  
Since 1 July heating degree days 3188 3398  
Cooling Degree Days 0 0  
Month to date cooling degree days 0 0  
Year to date cooling degree days 0 0  
Moisture
Dew Point 30°F   
Average Humidity 75    
Maximum Humidity 100    
Minimum Humidity 49    
Precipitation
Precipitation 0.04 in 0.08 in 1.18 in (2005)
Month to date precipitation 0.89 1.07  
Year to date precipitation 3.71 4.23  
Wind
Wind Speed 4 mph   
Max Wind Speed 10 mph   
Max Gust Speed 17 mph   
Visibility 5 miles   
Events Fog , Snow   

Key: T is trace of precipitation, MM is missing value
Source: NWS Daily Summary
Time(EST)TemperatureDew PointHumidity Pressure Visibility Wind DirectionWind SpeedGust SpeedPrecipitationEvents Conditions
12:00 AM 33.8°F 32.0°F 93% 29.71 in 3.0 miles North 4.6 mph - 0.01 in Snow Light Snow
12:11 AM 33.8°F 32.0°F 93% 29.71 in 3.0 miles North 4.6 mph - 0.01 in Snow Light Snow
12:14 AM 33.8°F 32.0°F 93% 29.72 in 2.5 miles North 3.5 mph - 0.01 in Snow Light Snow
12:44 AM 33.8°F 32.0°F 93% 29.72 in 2.5 miles NNW 3.5 mph - 0.03 in Snow Light Snow
12:47 AM 33.8°F 32.0°F 93% 29.72 in 3.0 miles North 3.5 mph - 0.03 in Snow Light Snow
12:53 AM 33.1°F 32.0°F 96% 29.71 in 3.0 miles NNW 3.5 mph - 0.03 in Snow Light Snow
1:12 AM 33.8°F 32.0°F 93% 29.72 in 3.0 miles Calm Calm - 0.00 in   Overcast
1:36 AM 32.0°F 30.2°F 93% 29.73 in 2.5 miles NNW 4.6 mph - 0.01 in   Overcast
1:42 AM 32.0°F 30.2°F 93% 29.74 in 3.0 miles NNW 4.6 mph - 0.01 in   Overcast
1:53 AM 33.1°F 30.9°F 92% 29.74 in 4.0 miles NW 3.5 mph - 0.01 in   Overcast
2:41 AM 33.8°F 30.2°F 87% 29.78 in 4.0 miles NNW 3.5 mph - 0.01 in   Overcast
2:53 AM 33.1°F 30.9°F 92% 29.77 in 3.0 miles NNW 3.5 mph - 0.01 in   Overcast
3:53 AM 33.1°F 30.9°F 92% 29.79 in 3.0 miles NW 3.5 mph - 0.02 in   Overcast
4:19 AM 32.0°F 30.2°F 93% 29.81 in 4.0 miles NNW 4.6 mph - N/A   Overcast
4:53 AM 33.1°F 30.9°F 92% 29.81 in 3.0 miles North 3.5 mph - N/A   Scattered Clouds
5:15 AM 32.0°F 30.2°F 93% 29.83 in 1.5 miles WSW 3.5 mph - N/A   Clear
5:17 AM 30.2°F 30.2°F 100% 29.83 in 1.0 miles WSW 3.5 mph - N/A   Mist
5:25 AM 32.0°F 30.2°F 93% 29.83 in 0.8 miles West 3.5 mph - N/A   Mist
5:33 AM 32.0°F 30.2°F 93% 29.84 in 0.8 miles West 3.5 mph - N/A   Mist
5:43 AM 32.0°F 30.2°F 93% 29.84 in 1.0 miles West 3.5 mph - N/A   Mist
5:50 AM 32.0°F 30.2°F 93% 29.85 in 2.0 miles WNW 3.5 mph - N/A   Mostly Cloudy
6:02 AM 32.0°F 30.2°F 93% 29.85 in 3.0 miles Calm Calm - N/A   Overcast
6:09 AM 32.0°F 30.2°F 93% 29.85 in 2.5 miles Calm Calm - N/A   Mostly Cloudy
6:14 AM 30.2°F 30.2°F 100% 29.86 in 0.8 miles Calm Calm - N/A   Overcast
6:53 AM 30.0°F 30.0°F 100% 29.88 in 0.2 miles Calm Calm - N/A Fog Light Freezing Fog
7:53 AM 30.0°F 28.9°F 96% 29.91 in 0.2 miles NNW 3.5 mph - N/A Fog Light Freezing Fog
8:22 AM 30.2°F 30.2°F 100% 29.93 in 1.0 miles North 5.8 mph - N/A   Clear
8:53 AM 32.0°F 30.9°F 96% 29.93 in 2.5 miles NW 5.8 mph - 0.02 in   Clear
9:01 AM 32.0°F 30.2°F 93% 29.94 in 3.0 miles NW 5.8 mph - 0.01 in   Clear
9:53 AM 35.1°F 30.9°F 85% 29.95 in 6.0 miles NNW 8.1 mph - 0.01 in   Clear
10:53 AM 39.0°F 30.0°F 70% 29.96 in 9.0 miles North 9.2 mph - N/A   Clear
11:53 AM 42.1°F 28.0°F 58% 29.96 in 10.0 miles Variable 5.8 mph - N/A   Clear
12:53 PM 43.0°F 28.9°F 58% 29.94 in 10.0 miles NW 5.8 mph - N/A   Clear
1:53 PM 43.0°F 27.0°F 53% 29.94 in 10.0 miles West 4.6 mph - N/A   Clear
2:53 PM 45.0°F 28.0°F 52% 29.94 in 10.0 miles WNW 6.9 mph - N/A   Clear
3:53 PM 45.0°F 28.0°F 52% 29.94 in 10.0 miles NW 8.1 mph - N/A   Scattered Clouds
4:53 PM 44.1°F 27.0°F 51% 29.95 in 10.0 miles West 4.6 mph - N/A   Partly Cloudy
5:53 PM 42.1°F 26.1°F 53% 29.95 in 10.0 miles Calm Calm - N/A   Clear
6:53 PM 39.9°F 27.0°F 60% 29.97 in 10.0 miles Calm Calm - N/A   Clear
7:53 PM 39.0°F 28.0°F 65% 29.98 in 9.0 miles WSW 4.6 mph - N/A   Clear
8:53 PM 37.0°F 28.0°F 70% 29.98 in 8.0 miles WSW 3.5 mph - N/A   Clear
9:53 PM 37.0°F 28.0°F 70% 30.00 in 8.0 miles WSW 3.5 mph - N/A   Clear
10:53 PM 36.0°F 28.0°F 73% 29.99 in 7.0 miles Calm Calm - N/A   Clear
11:53 PM 33.1°F 27.0°F 78% 29.99 in 7.0 miles SSW 3.5 mph - N/A   Clear
Astronomy
Sunrise:06:53 AM (EST) Moon Rise:08:53 AM (EST)2/14
Sunset:05:33 PM (EST) Moon Set:10:35 PM (EST)2/14
Moon Phase
Feb. 14 Feb. 17 Feb. 25 Mar. 04 Mar. 11

Copyright © 2014 The Weather Underground, Inc.